Hourly Data Report for November 13, 2017

All times are specified in Local Standard Time (LST). Add 1 hour to adjust for Daylight Saving Time where and when it is observed.

DAUPHIN
MANITOBA

51°06'03.000" N
100°03'09.000" W
304.50 m
5040689
71036
YDN

Download Data

Hourly Data (November 2017)
Hourly Data Report for November 13, 2017
Temp Definition
°C
Dew Point Temp Definition
°C
Rel Hum Definition
%
Wind Dir Definition
10's deg

Wind Spd Definition
km/h
Visibility Definition
km
Stn Press Definition
kPa
Hmdx Definition


Wind Chill Definition


Weather Definition


TIME
00:00 Legend Double Dagger -5.4 -7.8 84 15 9 16.1 98.74   -9 LegendNANA
01:00 Legend Double Dagger -6.6 -8.7 85 12 5 16.1 98.72   -9 LegendNANA
02:00 Legend Double Dagger -8.0 -9.8 87 12 8 16.1 98.63   -12 LegendNANA
03:00 Legend Double Dagger -8.4 -10.0 88 14 8 16.1 98.55   -13 LegendNANA
04:00 Legend Double Dagger -11.6 -12.6 93 14 8 16.1 98.45   -16 LegendNANA
05:00 Legend Double Dagger -13.3 -14.0 94 26 8 12.9 98.39   -18 LegendNANA
06:00 Legend Double Dagger -14.1 -15.3 91 27 5 12.9 98.34   -18 LegendNANA
07:00 Legend Double Dagger -13.5 -14.5 92 27 8 11.3 98.31   -19 LegendNANA
08:00 Legend Double Dagger -13.9 -14.8 93 24 5 11.3 98.29   -17 LegendNANA
09:00 Legend Double Dagger -12.6 -13.8 91 27 5 9.7 98.27   -16 Fog
10:00 Legend Double Dagger -10.1 -10.9 94 16 4 14.5 98.22   -12 LegendNANA
11:00 Legend Double Dagger -7.4 -9.2 87 19 4 16.1 98.17   -9 LegendNANA
12:00 Legend Double Dagger -5.4 -8.4 80 14 5 16.1 98.08   -8 LegendNANA
13:00 Legend Double Dagger -4.2 -7.5 78 13 5 16.1 97.95   -6 LegendNANA
14:00 Legend Double Dagger -2.7 -6.8 74 13 8 16.1 97.85   -6 LegendNANA
15:00 Legend Double Dagger -2.2 -5.9 76 9 5 16.1 97.79   -4 LegendNANA
16:00 Legend Double Dagger -3.2 -6.2 80 LegendMM 4 16.1 97.72   -5 LegendNANA
17:00 Legend Double Dagger -4.9 -7.2 84 35 8 16.1 97.66   -8 LegendNANA
18:00 Legend Double Dagger -6.8 -7.9 92 LegendMM 4 14.5 97.59   -9 LegendNANA
19:00 Legend Double Dagger -7.6 -8.1 97 9 5 9.7 97.54   -10 Fog
20:00 Legend Double Dagger -9.0 -9.5 96   0 4.8 97.47     Fog
21:00 Legend Double Dagger -10.4 -11.0 95 28 5 4.8 97.43   -13 Fog
22:00 Legend Double Dagger -9.1 -9.3 99 33 4 3.2 97.36   -11 Fog
23:00 Legend Double Dagger -6.8 -7.1 98 27 9 8.1 97.30   -11 Fog

Notes on Data Quality.

Legend

  • E = Estimated
  • M = Missing
  • NA = Not Available
  • ‡ = Partner data that is not subject to review by the National Climate Archives
Date modified: